Weather History for Belmar-Farmingdale, NJ

Change the Weather History Date:

Wednesday, May 7, 2014

  Actual Average Record
Temperature  
Mean Temperature 53 °F -  
Max Temperature 62 °F 65 °F 91 °F (2000)
Min Temperature 44 °F 48 °F 39 °F (2007)
Degree Days  
Heating Degree Days 12    
Growing Degree Days 3 (Base 50)    
Moisture  
Dew Point 33 °F    
Average Humidity 48    
Maximum Humidity 76    
Minimum Humidity 29    
Precipitation  
Precipitation 0.00 in - - ()
Sea Level Pressure  
Sea Level Pressure 30.19 in    
Wind  
Wind Speed 6 mph (ESE)    
Max Wind Speed 12 mph    
Max Gust Speed 18 mph    
Visibility 10 miles    
Events      
Averages and records for this station are not official NWS values.
T = Trace of Precipitation, MM = Missing Value Source: NWS Daily Summary

Daily Weather History Graph

Daily Weather History Graph

Search for Another Location

Airport:

Trip Planner

Search our weather history database for the weather conditions in past years. The results will help you decide how hot, cold, wet, or windy it might be!

Date:

Astronomy

May. 07, 2014 Rise Set
Actual Time 5:49 AM EDT 7:57 PM EDT
Civil Twilight 5:19 AM EDT 8:27 PM EDT
Nautical Twilight 4:42 AM EDT 9:04 PM EDT
Astronomical Twilight 4:02 AM EDT 9:44 PM EDT
Moon 12:59 PM EDT (5/7) 1:47 AM EDT (5/7)
Length of Visible Light 15h 08m
Length of Day
14h 08m
First Quarter, 55% of the Moon is Illuminated
May 7
First Quarter
May 14
Full
May 21
Last Quarter
May 28
New
Jun 5
First Quarter

Hourly Weather History & Observations

Time (EDT) Temp. Windchill Dew Point Humidity Pressure Visibility Wind Dir Wind Speed Gust Speed Precip Events Conditions
12:15 AM 51.8 °F - 33.8 °F 50% 30.08 in 10.0 mi NNW 6.9 mph - N/A   Clear
12:35 AM 51.8 °F - 33.8 °F 50% 30.08 in 10.0 mi NNW 4.6 mph - N/A   Clear
12:55 AM 48.2 °F - 33.8 °F 58% 30.09 in 10.0 mi NNW 5.8 mph - N/A   Clear
1:15 AM 51.8 °F - 32.0 °F 47% 30.09 in 10.0 mi North 4.6 mph - N/A   Clear
1:35 AM 50.0 °F - 32.0 °F 50% 30.10 in 10.0 mi NNW 5.8 mph - N/A   Clear
1:55 AM 50.0 °F - 32.0 °F 50% 30.10 in 10.0 mi North 8.1 mph - N/A   Clear
2:15 AM 51.8 °F - 30.2 °F 44% 30.10 in 10.0 mi North 5.8 mph - N/A   Clear
2:35 AM 51.8 °F - 30.2 °F 44% 30.11 in 10.0 mi NW 4.6 mph - N/A   Clear
2:55 AM 46.4 °F 44.3 °F 30.2 °F 53% 30.11 in 10.0 mi NW 4.6 mph - N/A   Clear
3:15 AM 46.4 °F 42.9 °F 30.2 °F 53% 30.12 in 10.0 mi NW 6.9 mph - N/A   Clear
3:35 AM 46.4 °F 43.5 °F 30.2 °F 53% 30.13 in 10.0 mi NNW 5.8 mph - N/A   Clear
3:55 AM 46.4 °F 45.2 °F 30.2 °F 53% 30.13 in 10.0 mi North 3.5 mph - N/A   Clear
4:15 AM 46.4 °F 43.5 °F 30.2 °F 53% 30.13 in 10.0 mi NNW 5.8 mph - N/A   Clear
4:35 AM 46.4 °F 43.5 °F 30.2 °F 53% 30.14 in 10.0 mi North 5.8 mph - N/A   Clear
4:55 AM 46.4 °F 44.3 °F 30.2 °F 53% 30.14 in 10.0 mi North 4.6 mph - N/A   Clear
5:15 AM 46.4 °F 44.3 °F 30.2 °F 53% 30.15 in 10.0 mi NNW 4.6 mph - N/A   Clear
5:35 AM 44.6 °F 42.2 °F 28.4 °F 53% 30.16 in 10.0 mi NNW 4.6 mph - N/A   Clear
5:55 AM 44.6 °F 42.2 °F 30.2 °F 57% 30.16 in 10.0 mi North 4.6 mph - N/A   Clear
6:15 AM 46.4 °F 43.5 °F 30.2 °F 53% 30.17 in 10.0 mi North 5.8 mph - N/A   Clear
6:35 AM 48.2 °F - 30.2 °F 50% 30.17 in 10.0 mi North 3.5 mph - N/A   Clear
6:55 AM 48.2 °F - 32.0 °F 54% 30.17 in 10.0 mi North 3.5 mph - N/A   Clear
7:15 AM 51.8 °F - 33.8 °F 50% 30.18 in 10.0 mi NNE 5.8 mph - N/A   Clear
7:35 AM 53.6 °F - 32.0 °F 44% 30.18 in 10.0 mi NNE 8.1 mph - N/A   Clear
7:55 AM 55.4 °F - 32.0 °F 41% 30.19 in 10.0 mi ENE 11.5 mph - N/A   Clear
8:15 AM 55.4 °F - 30.2 °F 38% 30.20 in 10.0 mi NE 8.1 mph - N/A   Clear
8:35 AM 57.2 °F - 30.2 °F 36% 30.21 in 10.0 mi ENE 6.9 mph - N/A   Clear
8:55 AM 57.2 °F - 28.4 °F 33% 30.23 in 10.0 mi NE 6.9 mph - N/A   Clear
9:15 AM 57.2 °F - 28.4 °F 33% 30.24 in 10.0 mi ENE 8.1 mph - N/A   Clear
9:35 AM 59.0 °F - 30.2 °F 34% 30.24 in 10.0 mi SE 5.8 mph - N/A   Clear
9:55 AM 59.0 °F - 28.4 °F 31% 30.24 in 10.0 mi NNE 4.6 mph - N/A   Clear
10:15 AM 60.8 °F - 28.4 °F 29% 30.24 in 10.0 mi ESE 5.8 mph - N/A   Clear
10:35 AM 60.8 °F - 30.2 °F 31% 30.25 in 10.0 mi SE 8.1 mph - N/A   Clear
10:55 AM 60.8 °F - 30.2 °F 31% 30.24 in 10.0 mi ESE 10.4 mph - N/A   Clear
11:15 AM 60.8 °F - 30.2 °F 31% 30.24 in 10.0 mi ESE 6.9 mph - N/A   Clear
11:35 AM 60.8 °F - 30.2 °F 31% 30.24 in 10.0 mi East 6.9 mph - N/A   Clear
11:55 AM 60.8 °F - 30.2 °F 31% 30.24 in 10.0 mi ESE 9.2 mph - N/A   Clear
12:15 PM 60.8 °F - 30.2 °F 31% 30.24 in 10.0 mi SE 6.9 mph - N/A   Clear
12:35 PM 60.8 °F - 30.2 °F 31% 30.24 in 10.0 mi East 11.5 mph - N/A   Clear
1:15 PM 62.6 °F - 30.2 °F 30% 30.23 in 10.0 mi ESE 10.4 mph - N/A   Clear
1:35 PM 60.8 °F - 30.2 °F 31% 30.22 in 10.0 mi ESE 11.5 mph - N/A   Clear
1:55 PM 62.6 °F - 32.0 °F 32% 30.23 in 10.0 mi SSE 9.2 mph - N/A   Clear
2:15 PM 60.8 °F - 30.2 °F 31% 30.22 in 10.0 mi SE 10.4 mph - N/A   Clear
2:35 PM 60.8 °F - 28.4 °F 29% 30.22 in 10.0 mi ESE 10.4 mph - N/A   Clear
2:55 PM 59.0 °F - 28.4 °F 31% 30.22 in 10.0 mi SSE 9.2 mph 18.4 mph N/A   Clear
3:15 PM 57.2 °F - 28.4 °F 33% 30.21 in 10.0 mi South 10.4 mph - N/A   Clear
3:35 PM 57.2 °F - 28.4 °F 33% 30.21 in 10.0 mi SSE 9.2 mph - N/A   Clear
3:55 PM 57.2 °F - 30.2 °F 36% 30.21 in 10.0 mi SSE 11.5 mph - N/A   Clear
4:15 PM 57.2 °F - 33.8 °F 41% 30.21 in 10.0 mi SSE 8.1 mph - N/A   Clear
4:35 PM 57.2 °F - 33.8 °F 41% 30.20 in 10.0 mi SSE 8.1 mph - N/A   Clear
4:55 PM 55.4 °F - 35.6 °F 47% 30.20 in 10.0 mi SSE 8.1 mph - N/A   Clear
5:15 PM 55.4 °F - 35.6 °F 47% 30.20 in 10.0 mi SSE 6.9 mph - N/A   Clear
5:35 PM 55.4 °F - 37.4 °F 51% 30.20 in 10.0 mi South 6.9 mph - N/A   Clear
5:55 PM 53.6 °F - 37.4 °F 54% 30.21 in 10.0 mi SSE 6.9 mph - N/A   Clear
6:15 PM 55.4 °F - 37.4 °F 51% 30.20 in 10.0 mi SSE 6.9 mph - N/A   Clear
6:35 PM 55.4 °F - 37.4 °F 51% 30.20 in 10.0 mi South 8.1 mph - N/A   Partly Cloudy
6:55 PM 55.4 °F - 37.4 °F 51% 30.20 in 10.0 mi SSW 6.9 mph - N/A   Mostly Cloudy
7:15 PM 55.4 °F - 37.4 °F 51% 30.21 in 10.0 mi SSW 8.1 mph - N/A   Mostly Cloudy
7:35 PM 55.4 °F - 37.4 °F 51% 30.22 in 10.0 mi SW 8.1 mph - N/A   Scattered Clouds
7:55 PM 53.6 °F - 39.2 °F 58% 30.20 in 10.0 mi SSW 5.8 mph - N/A   Mostly Cloudy
8:15 PM 53.6 °F - 39.2 °F 58% 30.21 in 10.0 mi SSW 6.9 mph - N/A   Overcast
8:35 PM 53.6 °F - 39.2 °F 58% 30.21 in 10.0 mi SW 5.8 mph - N/A   Overcast
8:55 PM 51.8 °F - 41.0 °F 67% 30.21 in 10.0 mi SSW 5.8 mph - N/A   Overcast
9:15 PM 51.8 °F - 41.0 °F 67% 30.23 in 10.0 mi Calm Calm - N/A   Overcast
9:35 PM 51.8 °F - 42.8 °F 71% 30.22 in 10.0 mi SW 3.5 mph - N/A   Overcast
9:55 PM 51.8 °F - 42.8 °F 71% 30.21 in 10.0 mi SW 5.8 mph - N/A   Overcast
10:15 PM 51.8 °F - 42.8 °F 71% 30.21 in 10.0 mi SSW 3.5 mph - N/A   Overcast
10:35 PM 51.8 °F - 42.8 °F 71% 30.21 in 10.0 mi South 4.6 mph - N/A   Overcast
10:55 PM 51.8 °F - 42.8 °F 71% 30.20 in 10.0 mi Calm Calm - N/A   Overcast
11:15 PM 50.0 °F - 42.8 °F 76% 30.20 in 10.0 mi Calm Calm - N/A   Overcast
11:35 PM 51.8 °F - 42.8 °F 71% 30.20 in 10.0 mi Calm Calm - N/A   Overcast
11:55 PM 51.8 °F - 42.8 °F 71% 30.20 in 10.0 mi Calm Calm - N/A   Overcast